This demonstration page uses our WeatherBlox Daily Observations layout. Learn more.

Left ArrowRight Arrow

47.50024, -111.30081

Hourly Observations for May 15, 2015

Temp ( °F °C ) Dew Point ( °F °C ) Humidity (%) Winds ( mph kmh ) Pressure ( in mb ) Visibility ( mi km ) Precip ( " mm )
12:53 am 00:53 Cloudy 47 8.3 45 7.2 93 93 NE 7 11 29.87 1012 10 16 0.00 0.00
1:53 am 01:53 Mostly Cloudy 46 7.8 44 6.7 93 93 NE 7 11 29.86 1011 10 16 0.00 0.00
2:53 am 02:53 Cloudy 47 8.3 44 6.7 90 90 E 7 11 29.84 1010 10 16 0.00 0.03
3:53 am 03:53 Cloudy 47 8.3 42 5.6 83 83 E 7 11 29.83 1010 10 16 0.00 0.00
4:53 am 04:53 Cloudy 47 8.3 42 5.6 83 83 ENE 7 11 29.81 1010 10 16 0.00 0.00
5:53 am 05:53 Cloudy 46 7.8 42 5.6 86 86 E 7 11 29.80 1009 10 16 0.00 0.00
6:53 am 06:53 Cloudy 47 8.3 42 5.6 83 83 ESE 14 22 29.81 1009 10 16 0.00 0.00
7:00 am 07:00 Cloudy 46 8 43 6 87 87 E 10 17 29.80 1009 10 16 0.00 0.00
7:53 am 07:53 Cloudy 46 7.8 42 5.6 86 86 NNE 7 11 29.82 1010 10 16 0.00 0.00
8:53 am 08:53 Cloudy 47 8.3 43 6.1 86 86 N 8 13 29.82 1010 10 16 0.00 0.00
9:53 am 09:53 Cloudy 49 9.4 45 7.2 86 86 E 10 17 29.81 1010 10 16 0.00 0.00
10:53 am 10:53 Cloudy 49 9.4 45 7.2 86 86 ESE 7 11 29.80 1009 10 16 0.00 0.00
11:53 am 11:53 Cloudy 49 9.4 45 7.2 86 86 NNE 9 15 29.81 1009 9 14 0.00 0.00
12:16 pm 12:16 Cloudy 50 10 45 7.2 83 83 N 10 17 29.77 1008 9 14 0.00 0.00
12:53 pm 12:53 Cloudy 50 10 45 7.2 83 83 N 8 13 29.80 1009 10 16 0.00 0.00
1:53 pm 13:53 Cloudy with Light Rain 50 10 45 7.2 83 83 NE 7 11 29.80 1009 9 14 0.00 0.03
2:29 pm 14:29 Cloudy with Light Rain 49 9.4 46 7.8 90 90 NE 7 11 29.74 1007 6 10 0.00 0.03
2:37 pm 14:37 Cloudy with Light Rain 49 9.4 46 7.8 90 90 NNE 9 15 29.74 1007 5 8 0.00 0.03
2:53 pm 14:53 Cloudy with Light Rain 49 9.4 47 8.3 93 93 NE 9 15 29.79 1009 3 5 0.01 0.25
3:37 pm 15:37 Cloudy with Light Rain 49 9.4 47 8.3 93 93 NE 7 11 29.74 1007 5 8 0.01 0.25
3:53 pm 15:53 Cloudy with Light Rain 48 8.9 47 8.3 96 96 NE 9 15 29.78 1008 4 6 0.01 0.25
4:06 pm 16:06 Cloudy with Light Rain 48 8.9 46 7.8 93 93 NNE 9 15 29.74 1007 3 5 0.00 0.03
4:13 pm 16:13 Cloudy with Light Rain 48 8.9 46 7.8 93 93 NNE 10 17 29.74 1007 3 5 0.00 0.03
4:53 pm 16:53 Cloudy with Mist and Fog 47 8.3 46 7.8 97 97 NNE 10 17 29.78 1008 5 8 0.01 0.25
5:53 pm 17:53 Cloudy with Mist and Fog 47 8.3 46 7.8 97 97 NE 7 11 29.79 1009 4 6 0.00 0.00
6:20 pm 18:20 Cloudy with Mist and Fog 46 8 46 8 100 100 NNE 6 9 29.77 1008 3 4 0.00 0.00
6:41 pm 18:41 Cloudy with Light Rain 47 8.3 46 7.8 97 97 N 6 9 29.77 1008 2 3 0.00 0.03
6:53 pm 18:53 Cloudy with Light Rain 47 8.3 46 7.8 97 97 N 6 9 29.79 1009 2 3 0.00 0.03
7:53 pm 19:53 Cloudy with Mist and Fog 47 8.3 46 7.8 97 97 NNE 7 11 29.80 1009 2 3 0.01 0.25
8:01 pm 20:01 Cloudy with Mist and Fog 47 8.3 46 7.8 97 97 NNE 7 11 29.77 1008 2 3 0.00 0.00
8:53 pm 20:53 Cloudy with Mist and Fog 46 7.8 46 7.8 100 100 N 8 13 29.80 1009 1 1 0.00 0.00
9:16 pm 21:16 Cloudy with Mist and Fog 46 8 46 8 100 100 N 7 11 29.77 1008 1 2 0.00 0.00
9:32 pm 21:32 Cloudy with Mist and Fog 46 8 45 7 93 93 N 9 15 29.77 1008 2 3 0.00 0.00
9:53 pm 21:53 Cloudy with Mist and Fog 46 7.8 45 7.2 96 96 N 10 17 29.79 1009 2 3 0.00 0.00
10:04 pm 22:04 Cloudy with Light Rain 46 8 45 7 93 93 N 12 19 29.77 1008 1 1 0.00 0.00
10:21 pm 22:21 Cloudy with Mist and Fog 46 7.8 45 7.2 96 96 N 9 15 29.77 1008 0 0 0.01 0.25
10:53 pm 22:53 Cloudy with Light Rain 46 7.8 45 7.2 96 96 N 9 15 29.79 1009 0 0 0.02 0.51
11:53 pm 23:53 Mostly Cloudy with Light Rain 46 7.8 45 7.2 96 96 N 8 13 29.78 1008 0 0 0.01 0.25

Powered by AerisWeather